Temperature
17 17 17 17 17 16 16 16 16 16 15 15 16 15 15 15 15 15 15 15 15 15 15 15 15 15 15 15 15 15 15 15 15 15 15 15 15 15
17 17 17 17 16 16 16 16 16 16 15 15 15 15 15 15 15 15 15 15 15 15 15 15 15 14 14 15 15 14 14 15 15 15 15 15 15 14
16 16 16 16 16 16 16 16 16 16 15 15 15 15 15 15 15 15 15 15 15 15 14 14 14 14 14 14 14 14 14 14 14 14 14 14 14 14
16 16 16 16 16 16 16 16 16 15 15 15 15 15 15 15 15 15 15 14 14 14 14 14 14 14 14 14 14 14 14 14 14 14 14 14 14 14
16 16 16 16 16 16 15 15 15 15 15 15 15 15 15 14 14 14 14 14 14 14 14 14 14 14 14 14 13 13 14 14 14 14 14 14 14 14
16 16 16 15 15 15 15 15 15 15 15 15 15 14 14 14 14 14 14 14 14 14 14 14 14 14 14 14 13 13 13 13 14 14 14 14 14 14
16 15 15 15 15 15 15 15 15 15 15 14 14 14 14 14 14 14 14 14 14 14 14 14 14 14 14 14 13 13 13 13 13 13 13 13 13 13
15 15 15 15 15 15 15 14 14 14 14 14 14 14 14 14 14 14 14 13 13 14 13 13 13 13 14 13 13 13 13 13 13 13 13 13 13 13
15 15 15 15 15 15 14 14 14 14 14 14 14 14 14 14 14 13 13 13 13 13 13 13 13 13 13 13 13 13 13 13 13 13 13 13 13 13
15 15 15 15 15 14 14 14 14 14 14 14 14 14 14 13 13 13 13 13 13 13 13 13 13 13 13 13 13 13 13 13 13 13 13 13 13 12
15 14 14 14 14 14 14 14 14 14 14 13 13 13 13 13 13 13 13 13 13 13 13 13 13 13 13 13 13 13 13 13 13 13 13 13 12 12
14 14 14 14 14 14 14 14 13 14 13 13 13 13 13 13 13 13 13 12 12 12 12 12 12 12 12 13 13 13 13 13 13 12 12 12 12 12
14 14 14 14 14 14 13 13 13 13 13 13 13 13 13 13 13 13 12 12 12 12 12 12 12 12 12 12 12 12 12 12 12 12 12 12 12 12
14 13 13 13 13 13 13 13 13 13 13 13 13 13 13 12 12 12 12 12 12 12 12 12 12 12 12 12 12 12 12 12 12 12 12 12 12 12
13 13 13 13 13 13 13 13 13 13 12 12 12 12 12 12 12 12 12 12 12 12 12 12 12 12 12 12 12 12 12 12 11 11 11 11 11 11
13 13 13 13 13 13 13 12 12 12 12 12 12 12 12 12 12 12 12 12 12 12 12 12 12 12 12 12 12 11 11 11 11 11 11 11 11 11
12 12 12 12 12 12 12 12 12 12 12 12 12 12 12 12 12 12 12 11 11 11 12 12 12 11 11 11 11 11 11 11 11 11 11 11 11 11
12 12 12 12 12 12 12 12 12 12 12 12 12 11 11 11 11 11 11 11 11 11 11 11 11 11 11 11 11 11 11 11 11 11 11 11 11 11
12 12 12 12 12 11 11 11 11 11 11 11 11 11 11 11 11 11 11 11 11 11 11 11 11 11 11 10 11 11 11 11 11 11 11 11 11 10
12 11 11 11 11 11 11 11 11 11 11 11 11 11 11 11 11 11 11 11 11 11 11 11 11 11 11 11 11 11 11 10 11 11 10 10 10 10
11 11 11 11 11 11 11 11 11 11 11 10 10 11 11 10 10 10 10 11 11 11 10 11 11 10 10 10 10 10 10 10 10 10 10 10 10 10
11 11 11 11 11 11 10 10 10 10 10 10 10 10 10 10 10 10 10 10 10 10 10 10 10 10 10 10 10 10 10 10 10 10 10 10 10 9
11 10 10 10 10 10 10 10 10 10 10 10 10 10 10 10 10 10 10 10 10 10 10 10 10 10 10 10 10 10 10 10 10 9 9 9 9 9
Wind_Speed
2 2 2 2 1 2 2 3 4 2 2 2 1 2 3 4 5 6 6 7 7 7 6 5 4 4 4 4 4 4 4 4 4 4 4 5 7 8
1 1 1 1 1 1 1 2 3 4 3 2 2 2 2 3 5 5 6 6 6 7 7 6 6 5 5 5 5 5 5 4 4 4 4 5 5 6
0 1 0 1 1 1 1 1 2 3 3 2 1 1 1 1 2 3 5 6 6 7 8 8 7 7 6 6 6 6 5 5 4 4 4 5 5 5
1 1 0 0 0 1 1 2 2 2 3 2 1 1 1 2 2 2 3 5 6 7 9 9 8 8 7 6 7 6 6 6 5 5 4 4 5 5
2 2 2 1 0 1 1 1 2 2 2 3 2 1 1 1 0 1 2 2 4 6 8 9 9 9 9 8 8 7 6 6 5 4 4 4 4 4
3 3 3 3 3 3 2 2 2 1 2 2 1 1 1 1 0 1 1 2 3 3 5 7 8 9 9 9 9 8 7 7 6 5 4 4 3 3
3 3 3 4 5 4 3 3 3 2 2 2 2 1 1 1 2 2 2 2 2 2 2 3 3 4 6 8 9 9 9 8 8 7 6 5 4 4
4 3 4 3 4 5 4 5 5 5 5 4 3 3 4 3 3 2 2 1 2 2 2 3 2 3 4 7 10 10 10 9 8 8 7 6 6 5
4 4 4 4 4 3 3 3 4 6 7 6 6 6 5 5 4 3 3 3 4 3 2 3 2 3 4 5 8 10 10 10 9 9 8 7 7 6
5 5 5 4 4 4 3 3 3 4 5 6 6 7 7 6 6 6 5 4 3 2 2 2 2 3 3 4 7 9 10 9 9 9 8 8 7 6
4 4 5 5 5 5 4 3 4 4 5 6 7 7 7 7 5 3 1 1 2 3 2 2 2 2 2 3 5 7 9 9 8 8 8 8 7 7
3 3 4 5 5 5 5 4 5 5 3 3 3 4 5 5 6 6 5 4 3 3 3 3 2 1 2 2 2 3 4 6 7 7 8 8 8 6
3 3 3 5 6 6 6 5 7 5 3 3 3 4 4 4 4 5 5 6 5 5 4 3 2 2 2 2 2 2 3 3 4 4 6 8 8 7
3 3 3 5 5 5 4 5 6 4 2 2 3 4 4 4 5 5 6 6 6 7 6 5 3 4 3 2 3 2 2 3 4 3 4 5 7 8
3 4 4 5 4 3 4 4 3 2 2 3 4 5 5 5 4 3 3 3 4 5 5 5 4 4 4 4 3 2 2 3 4 4 3 4 4 4
3 3 3 3 2 2 2 2 2 2 3 4 4 4 3 2 3 3 3 2 2 4 4 4 5 5 4 4 4 3 3 3 3 4 4 3 4 5
1 1 1 1 1 1 1 2 2 2 3 3 3 3 3 3 3 3 3 2 3 4 4 3 2 2 4 4 3 4 4 3 3 4 4 3 3 5
2 1 2 2 3 3 3 3 2 3 3 3 3 3 3 3 3 3 2 3 4 4 4 3 1 0 1 2 4 4 3 3 3 3 3 4 4 4
2 3 3 3 3 3 3 3 3 3 3 3 3 3 3 3 2 2 3 3 4 4 4 3 3 3 3 5 4 4 5 4 3 3 3 4 5 5
2 3 4 3 3 3 3 3 3 3 3 3 3 3 3 3 3 3 3 4 4 3 3 3 4 5 6 5 3 3 4 4 4 4 3 2 2 2
3 3 3 3 3 3 3 3 3 3 3 3 3 3 3 3 3 4 4 5 4 3 4 5 5 5 2 1 1 2 2 4 5 4 4 3 2 1
3 3 3 3 3 3 2 2 2 3 3 3 4 4 4 3 4 4 4 4 4 4 4 3 2 1 2 3 4 4 3 2 2 3 4 5 4 5
3 3 3 3 3 2 2 3 4 4 4 4 4 4 4 4 4 4 4 4 3 3 3 2 1 1 2 3 4 3 3 3 1 1 2 4 6 7
Wind_Direction
198 215 215 234 206 199 181 168 165 182 238 257 250 240 210 193 200 196 192 196 197 201 204 210 218 224 227 227 227 233 244 257 256 243 242 243 242 236
206 208 231 231 192 177 172 176 165 168 197 240 235 229 210 207 208 196 195 199 201 207 211 215 222 226 232 233 227 232 240 252 253 247 250 250 248 240
87 123 247 236 187 204 167 155 158 153 181 257 261 246 190 213 203 200 208 204 213 219 220 223 227 229 232 236 233 235 242 250 248 247 253 251 242 241
192 131 204 136 244 207 173 177 183 172 169 210 262 273 237 220 207 209 209 215 217 224 224 226 232 234 235 236 236 239 243 249 247 244 250 251 246 243
207 197 215 174 206 245 213 208 209 186 161 171 225 239 248 240 208 255 236 240 234 233 230 233 236 238 239 239 239 241 241 242 243 241 241 243 238 231
218 211 212 203 205 205 214 216 202 175 153 159 196 229 241 258 143 232 271 261 245 240 240 236 237 238 240 240 240 241 238 235 237 236 234 236 229 216
238 233 225 216 211 208 206 205 194 183 180 186 205 209 230 214 228 233 236 260 260 241 248 245 226 232 240 242 242 243 236 231 231 233 234 231 224 213
234 247 244 227 224 219 214 205 196 194 196 196 207 215 227 223 225 220 217 212 268 253 200 257 206 231 237 233 238 234 231 229 230 230 229 226 223 217
227 232 239 228 222 226 229 233 235 225 205 193 203 218 215 216 205 215 217 213 232 232 185 248 243 241 243 243 239 232 231 230 228 228 225 222 219 219
231 225 222 230 230 209 216 238 253 252 228 212 211 221 218 211 200 205 215 227 260 248 175 223 241 238 247 244 246 231 228 229 229 226 222 221 219 215
249 232 213 219 226 203 201 228 254 272 264 232 222 225 225 218 193 165 182 185 259 258 214 193 227 238 252 260 255 234 228 230 231 226 220 217 214 210
261 253 222 215 222 206 201 209 233 253 259 273 260 254 247 241 216 195 195 203 227 250 230 189 211 182 269 268 255 243 232 234 229 224 219 214 208 197
244 250 244 227 228 227 216 217 229 231 224 231 253 258 256 251 240 224 210 200 210 235 226 180 194 188 202 252 275 241 218 222 220 229 224 217 208 194
231 241 240 236 241 242 236 233 232 225 216 225 245 253 252 247 243 237 230 223 218 224 220 186 192 195 191 220 251 245 226 224 212 215 218 215 212 211
243 247 248 241 237 239 245 243 235 211 213 230 244 250 245 243 243 246 247 240 249 256 240 212 197 198 192 210 227 218 220 230 210 203 204 202 202 196
280 283 274 262 261 260 266 258 236 219 219 239 251 256 257 257 249 237 242 239 251 276 276 241 209 195 208 220 214 227 211 208 206 200 192 201 206 204
249 323 329 319 301 296 289 277 256 237 237 250 251 264 267 262 259 242 229 222 225 244 259 269 253 208 203 202 216 232 219 215 205 190 184 203 224 218
161 222 245 248 249 254 258 267 255 241 241 244 247 250 254 253 259 253 230 219 232 243 244 240 215 292 337 298 225 220 219 213 208 198 190 197 228 231
188 226 234 240 247 248 245 247 256 261 254 249 250 254 257 256 254 259 246 241 242 244 245 228 203 193 220 256 271 226 204 207 197 206 208 205 217 229
215 226 236 240 242 245 246 250 259 270 271 266 259 254 252 248 251 254 248 241 239 241 246 231 215 210 213 225 235 259 226 202 200 207 215 217 235 250
233 233 235 239 250 250 247 245 246 256 266 266 262 255 251 246 251 252 249 246 238 235 239 243 240 219 191 138 211 269 269 232 209 198 190 184 208 221
241 233 232 230 242 251 248 243 252 261 259 257 258 252 247 241 244 251 252 250 243 237 243 250 238 170 176 202 224 237 253 273 238 220 211 198 186 201
234 232 230 226 230 234 239 244 246 255 254 259 261 256 253 251 251 248 251 249 247 242 237 239 231 202 212 210 216 230 236 237 223 208 269 260 230 226
Height
1521 1521 1521 1521 1521 1521 1522 1522 1522 1521 1521 1521 1522 1522 1522 1522 1522 1522 1522 1522 1522 1522 1522 1522 1521 1521 1520 1519 1519 1518 1518 1517 1517 1516 1517 1517 1518 1518
1519 1519 1519 1519 1519 1519 1519 1519 1519 1519 1519 1519 1520 1520 1521 1521 1520 1520 1521 1521 1521 1521 1520 1520 1520 1519 1519 1518 1517 1516 1516 1515 1514 1514 1514 1514 1515 1515
1518 1518 1517 1517 1517 1517 1517 1517 1517 1518 1517 1518 1518 1519 1519 1519 1519 1519 1519 1519 1519 1519 1518 1518 1518 1518 1517 1516 1515 1515 1514 1513 1512 1512 1512 1512 1512 1512
1516 1516 1515 1515 1515 1515 1515 1515 1515 1516 1516 1516 1516 1517 1517 1517 1517 1517 1517 1517 1517 1517 1517 1516 1516 1516 1515 1515 1514 1513 1512 1511 1510 1510 1509 1509 1509 1509
1514 1514 1513 1513 1513 1513 1513 1513 1514 1514 1514 1514 1514 1515 1515 1515 1515 1515 1515 1515 1515 1515 1514 1514 1514 1514 1514 1513 1512 1511 1511 1510 1509 1508 1507 1507 1507 1507
1512 1512 1511 1511 1511 1511 1511 1511 1512 1512 1512 1512 1512 1512 1512 1513 1513 1512 1512 1512 1512 1512 1512 1512 1512 1512 1512 1511 1511 1510 1509 1508 1507 1507 1506 1506 1506 1506
1509 1509 1509 1509 1509 1509 1509 1509 1509 1509 1509 1510 1509 1509 1510 1510 1509 1510 1509 1509 1509 1510 1509 1510 1510 1509 1509 1509 1509 1508 1507 1506 1506 1505 1505 1504 1504 1505
1505 1506 1506 1506 1506 1506 1506 1506 1506 1507 1506 1507 1507 1507 1507 1507 1507 1507 1507 1506 1506 1507 1507 1507 1507 1507 1507 1507 1506 1506 1505 1505 1504 1504 1503 1503 1503 1503
1502 1502 1502 1502 1503 1503 1503 1503 1503 1503 1504 1504 1504 1503 1504 1504 1504 1504 1504 1503 1503 1504 1504 1503 1504 1504 1504 1504 1504 1504 1503 1503 1502 1502 1501 1501 1501 1502
1499 1499 1499 1499 1500 1500 1500 1500 1500 1500 1500 1501 1501 1501 1501 1502 1501 1501 1501 1500 1500 1500 1501 1500 1500 1500 1501 1501 1501 1500 1500 1500 1500 1500 1499 1499 1499 1500
1496 1496 1496 1496 1496 1496 1497 1496 1496 1496 1497 1497 1497 1498 1498 1498 1498 1498 1498 1497 1496 1496 1497 1497 1496 1496 1497 1497 1497 1497 1497 1497 1497 1497 1497 1497 1497 1498
1492 1492 1492 1492 1492 1493 1493 1493 1492 1492 1493 1493 1493 1494 1494 1494 1494 1494 1494 1494 1493 1492 1493 1493 1493 1493 1493 1493 1493 1494 1494 1494 1494 1495 1495 1495 1495 1495
1487 1488 1488 1488 1489 1489 1489 1489 1489 1489 1489 1489 1489 1490 1490 1490 1490 1490 1490 1490 1490 1489 1490 1490 1490 1490 1490 1490 1490 1490 1490 1491 1491 1491 1492 1492 1493 1493
1484 1484 1484 1485 1485 1485 1485 1485 1485 1485 1485 1485 1485 1485 1485 1485 1485 1486 1486 1486 1486 1486 1486 1487 1487 1487 1487 1486 1486 1486 1487 1487 1488 1488 1489 1489 1490 1490
1481 1481 1482 1481 1482 1481 1481 1481 1481 1481 1481 1480 1480 1480 1481 1481 1481 1481 1481 1481 1481 1482 1482 1483 1483 1483 1484 1483 1483 1483 1483 1483 1484 1484 1485 1485 1486 1486
1478 1479 1479 1478 1478 1478 1478 1478 1478 1477 1477 1476 1476 1476 1476 1476 1475 1476 1476 1476 1477 1477 1478 1479 1479 1479 1479 1479 1479 1479 1479 1479 1480 1480 1481 1482 1482 1483
1476 1476 1475 1475 1474 1474 1474 1475 1474 1474 1474 1473 1473 1472 1472 1472 1472 1472 1472 1473 1473 1473 1473 1474 1475 1475 1475 1476 1475 1475 1475 1475 1476 1477 1477 1478 1478 1479
1473 1472 1472 1471 1471 1471 1471 1471 1471 1470 1470 1469 1469 1469 1468 1468 1468 1468 1469 1469 1469 1469 1469 1470 1470 1470 1471 1471 1471 1470 1471 1471 1472 1473 1473 1474 1474 1475
1469 1468 1468 1468 1468 1467 1467 1467 1467 1467 1466 1466 1465 1465 1465 1464 1464 1464 1464 1464 1464 1465 1465 1466 1466 1466 1466 1465 1465 1466 1466 1466 1467 1468 1469 1469 1470 1471
1465 1465 1465 1465 1464 1464 1464 1463 1463 1463 1462 1462 1461 1461 1461 1461 1460 1460 1460 1460 1460 1460 1460 1461 1461 1461 1461 1461 1461 1461 1462 1462 1463 1463 1464 1465 1466 1467
1462 1462 1462 1461 1461 1461 1461 1460 1459 1458 1458 1458 1458 1457 1457 1457 1456 1456 1456 1456 1456 1456 1455 1456 1456 1457 1458 1458 1457 1457 1458 1458 1459 1459 1460 1461 1462 1462
1459 1459 1458 1458 1458 1458 1457 1456 1455 1455 1454 1454 1453 1453 1453 1453 1452 1452 1452 1452 1452 1452 1452 1452 1453 1453 1453 1453 1453 1453 1454 1455 1455 1456 1457 1457 1457 1457
1456 1455 1455 1454 1454 1454 1453 1452 1452 1451 1451 1450 1450 1449 1449 1448 1448 1448 1448 1448 1448 1448 1448 1448 1448 1449 1449 1449 1449 1449 1450 1451 1451 1452 1453 1453 1454 1455